Regional Weather Roundup
Issued by NWS Charleston, SC

Current Version | Previous Version | Graphics & Text | Print | Product List | Glossary On
Versions: 1 2 3 4 5 6 7 8 9 10 11 12 13 14 15 16 17 18 19 20 21 22 23 24 25 26 27 28 29 30 31 32 33 34 35 36 37 38 39 40 41 42 43 44 45 46 47 48 49 50
000
ASUS42 KCHS 281113
RWRCHS

REGIONAL WEATHER ROUNDUP
NATIONAL WEATHER SERVICE CHARLESTON SC
700 AM EDT WED SEP 28 2016

NOTE: "FAIR" INDICATES FEW OR NO CLOUDS BELOW 12,000 FEET WITH NO
SIGNIFICANT WEATHER AND/OR OBSTRUCTIONS TO VISIBILITY.

NOT ALL STATIONS ARE QUALITY CONTROLLED. USE DATA WITH CAUTION...
ESPECIALLY DEWPOINT OBSERVATIONS.

SCZ027-030-031-034>040-042>050-281200-
...SOUTHEAST SOUTH CAROLINA...

CITY           SKY/WX    TMP DP  RH WIND       PRES   REMARKS
N CHARLESTON   PTCLDY    71  68  90 S3        29.93R
WATERFRONT PRK   N/A     75  73  93 CALM      29.92R
MOUNT PLEASANT FAIR      70  70 100 CALM      29.94R
JOHNS ISLAND   FAIR      70  70 100 CALM      29.94R
PINOPOLIS        N/A     73  72  94 CALM      29.85R
MONCKS CORNER  FAIR      68  66  94 CALM      29.93S FOG
SUMMERVILLE    FAIR      68  68 100 CALM      29.94S
BEAUFORT MCAS  PTCLDY    71  69  93 SW3       29.94R
BEAUFORT ARPT  FAIR      72  72 100 CALM      29.93S
HILTON HEAD IS CLEAR     73  70  88 S6        29.95R
WALTERBORO     SUNNY     70  70 100 CALM      29.94S FOG
ALLENDALE      FAIR      72  70  94 CALM      29.92S

...SOUTHERN MIDLANDS AND PEE DEE...

CITY           SKY/WX    TMP DP  RH WIND       PRES   REMARKS
GEORGETOWN     FAIR      66  64  94 CALM      29.94R
KINGSTREE      FAIR      66  64  94 SE3       29.92S
ORANGEBURG     CLOUDY    69  69 100 S5        29.92S FOG
BARNWELL       NOT AVBL
AIKEN          FAIR      68  63  83 S7        29.95S
MANNING        FAIR      70  70 100 CALM      29.92S
COLUMBIA       PTCLDY    71  66  84 S5        29.90R
SUMTER         PTCLDY    70  69  94 SE3       29.89R
FLORENCE       PTCLDY    70  68  93 CALM      29.92R
MYRTLE BEACH   PTCLDY    72  63  73 CALM      29.95R
N MYRTLE BEACH CLEAR     70  68  93 CALM      29.93R

$$

GAZ063-065-086>088-099>101-113>116-118-119-134>141-150-281200-
...SOUTHEAST GEORGIA...

CITY           SKY/WX    TMP DP  RH WIND       PRES   REMARKS
SAVANNAH ARPT  PTCLDY    72  69  90 CALM      29.94R
HUNTER AAF     CLEAR     72  72 100 CALM      29.92R
FORT STEWART   CLEAR     68  66  93 CALM      29.92R
STATESBORO     CLEAR     71  71  98 CALM      29.94R
SYLVANIA       NOT AVBL
CLAXTON        FAIR      68  68 100 CALM      29.95R FOG

...CSRA...CENTRAL AND FAR SOUTHEAST GEORGIA...

CITY           SKY/WX    TMP DP  RH WIND       PRES   REMARKS
THOMSON        CLOUDY    68  68 100 CALM      29.96R
AUGUSTA-BUSH   PTCLDY    68  67  96 SE3       29.91R
AUGUSTA-DANIEL PTCLDY    71  65  81 SE7       29.92R
SWAINSBORO     FAIR      68  66  94 CALM      29.94R
VIDALIA        PTCLDY    70  70 100 CALM      29.94R
EASTMAN        FAIR      68  68 100 S3        29.96R FOG
HAZLEHURST     FAIR      71  71 100 CALM      29.94R
ALMA           CLEAR     68  67  96 CALM      29.94R FOG
WAYCROSS       CLEAR     70  70 100 CALM      29.95R
JESUP          FOG       64  64 100 CALM      29.95R VSB 1
BAXLEY         FAIR      68  68 100 CALM      29.94R FOG
BRUNSWICK      FOG       72  72 100 CALM      29.95R VSB 1/2
SAINT SIMONS   CLEAR     75  72  90 SW5       29.94R

$$

SCZ027-028-034-036>038-045-046-048>050-GAZ119-141-281200-
...LAKE AND SUPPLEMENTAL COASTAL OBSERVATIONS...

STATION/POSITION TIME  TEMP    WIND        PRES    WAVE   SWELL
                       AIR SEA DIR/SP/G            HT/PER HT/PER/DIR
                 (UTC) (F)     (DEG/KT/KT) (MB)    (FT/S) (FT/S/D)
WINYAH BAY       NOT AVBL
LAKE MURRAY      1020   73     140/  4/  6 1011.9R
ACE BASIN NERRS  0945   72        CALM     1014.0
FORT PULASKI     1048   76 81  210/  4/  5 1014.2R
SAPELO ISLAND    1000   74        CALM     1013.0

$$

ANZ835-935-AMZ111-154-330-350-352-354-370-450-454-472-281200-
...C-MAN AND BUOY OBSERVATIONS...

STATION/POSITION TIME  TEMP    WIND        PRES    WAVE   SWELL
                       AIR SEA DIR/SP/G            HT/PER HT/PER/DIR
                 (UTC) (F)     (DEG/KT/KT) (MB)    (FT/S) (FT/S/D)
BUOY 41004       1050   79 82  240/  2/  4 1013.2R   3/11   3/110/11
BUOY 41008       1050   81 82  190/  8/ 10 1013.5R   2/12   2/ 60/12
FOLLY BEACH CMAN 1000   76     250/  2/  2 1013.4S
CAPERS NEARSHORE 1008   79 81  230/  6/  8 1012.9F
FRIPP NEARSHORE  1008   79 81  210/ 10/ 12 1013.4R


STATION/POSITION TIME  TEMP    WIND        PRES    WAVE   SWELL
                       AIR SEA DIR/SP/G            HT/PER HT/PER/DIR
                 (UTC) (F)     (DEG/KT/KT) (MB)    (FT/S) (FT/S/D)
5E ST. MARYS GA  1001      82                N/A     2/12   2/100/12
FRYING PAN BUOY  1050   79 82  210/  4/  4 1013.4R   4/ 7   3/100/ 7
BUOY 41025       1050   76 84  330/ 10/ 14 1012.9R   4/ 7   3/130/ 7
CAPE LOOKOUT NC  1000   73     360/  3/  4 1013.2R
BUOY 41002       1050   79 83  160/ 10/ 12 1013.9R   4/ 7   3/ 70/ 7
BUOY 41010       NOT AVBL
ST AUGUSTINE FL  1100   74 83  250/  5/  6 1015.2R


$$




USA.gov is the U.S. government's official web portal to all federal, state and local government web resources and services.